• In Hungary
  • List of Countries
  • For 7 days
  • Water Temperature
  • Satellite Maps
  • Weather Map
  • News
  • Weather Widgets
  • user-avatar
    Login

    Hourly Weather Bolshaya Sosnovka

    Today, 19 September, Wednesday

    Time Temperature Precipitation Wind Pressure Humidity
    00:00 +10°C° 0 mm 4 mps 744 mmHg 92%
    01:00 +10°C° 0 mm 4 mps 744 mmHg 90%
    02:00 +10°C° 0 mm 4 mps 744 mmHg 88%
    03:00 +8°C° 0 mm 5 mps 744 mmHg 86%
    04:00 +8°C° 0.1 mm 5 mps 744 mmHg 85%
    05:00 +8°C° 0.1 mm 5 mps 744 mmHg 84%
    06:00 +8°C° 0.1 mm 5 mps 744 mmHg 84%
    07:00 +8°C° 0.1 mm 6 mps 744 mmHg 83%
    08:00 +8°C° 0.1 mm 6 mps 744 mmHg 82%
    09:00 +8°C° 0.1 mm 7 mps 744 mmHg 81%
    10:00 +8°C° 0.1 mm 7 mps 744 mmHg 80%
    11:00 +8°C° 0.1 mm 7 mps 745 mmHg 79%
    12:00 +9°C° 0.1 mm 7 mps 745 mmHg 78%
    13:00 +9°C° 0.1 mm 7 mps 745 mmHg 76%
    14:00 +9°C° 0.1 mm 6 mps 745 mmHg 75%
    15:00 +9°C° 0.1 mm 6 mps 745 mmHg 73%
    16:00 +9°C° 0 mm 5 mps 746 mmHg 74%
    17:00 +10°C° 0 mm 4 mps 746 mmHg 75%
    18:00 +8°C° 0 mm 4 mps 746 mmHg 76%
    19:00 +7°C° 0 mm 4 mps 747 mmHg 78%
    20:00 +8°C° 0 mm 3 mps 747 mmHg 81%
    21:00 +7°C° 0 mm 3 mps 747 mmHg 84%
    22:00 +7°C° 0 mm 3 mps 747 mmHg 86%
    23:00 +5°C° 0 mm 3 mps 747 mmHg 88%

    Tomorrow, 20 September, Thursday

    Time Temperature Precipitation Wind Pressure Humidity
    00:00 +5°C° 0 mm 3 mps 747 mmHg 91%
    01:00 +5°C° 0 mm 3 mps 748 mmHg 91%
    02:00 +5°C° 0 mm 3 mps 748 mmHg 91%
    03:00 +6°C° 0 mm 2 mps 748 mmHg 91%
    04:00 +6°C° 0 mm 2 mps 748 mmHg 92%
    05:00 +5°C° 0 mm 2 mps 748 mmHg 93%
    06:00 +5°C° 0 mm 2 mps 748 mmHg 94%
    07:00 +7°C° 0 mm 2 mps 748 mmHg 86%
    08:00 +9°C° 0 mm 2 mps 749 mmHg 79%
    09:00 +13°C° 0 mm 2 mps 749 mmHg 71%
    10:00 +14°C° 0 mm 2 mps 749 mmHg 66%
    11:00 +14°C° 0 mm 3 mps 749 mmHg 61%
    12:00 +16°C° 0 mm 3 mps 749 mmHg 56%
    13:00 +16°C° 0 mm 3 mps 749 mmHg 58%
    14:00 +17°C° 0 mm 2 mps 749 mmHg 59%
    15:00 +17°C° 0 mm 2 mps 749 mmHg 61%
    16:00 +15°C° 0 mm 2 mps 749 mmHg 69%
    17:00 +14°C° 0 mm 2 mps 749 mmHg 77%
    18:00 +13°C° 0 mm 2 mps 749 mmHg 86%
    19:00 +12°C° 0 mm 1 mps 749 mmHg 88%
    20:00 +12°C° 0 mm 1 mps 749 mmHg 90%
    21:00 +11°C° 0 mm 1 mps 750 mmHg 93%
    22:00 +11°C° 0 mm 1 mps 750 mmHg 93%
    23:00 +11°C° 0 mm 1 mps 750 mmHg 94%

    Day after tomorrow, 21 September, Friday

    Time Temperature Precipitation Wind Pressure Humidity
    00:00 +10°C° 0 mm 1 mps 750 mmHg 95%
    01:00 +10°C° 0 mm 1 mps 750 mmHg 95%
    02:00 +10°C° 0 mm 1 mps 750 mmHg 95%
    03:00 +11°C° 0 mm 1 mps 751 mmHg 95%
    04:00 +11°C° 0 mm 1 mps 751 mmHg 96%
    05:00 +11°C° 0 mm 1 mps 751 mmHg 96%
    06:00 +12°C° 0 mm 1 mps 751 mmHg 96%
    07:00 +12°C° 0 mm 2 mps 752 mmHg 94%
    08:00 +13°C° 0 mm 2 mps 752 mmHg 93%
    09:00 +14°C° 0 mm 2 mps 753 mmHg 91%
    10:00 +14°C° 0 mm 3 mps 753 mmHg 88%
    11:00 +16°C° 0 mm 3 mps 753 mmHg 85%
    12:00 +17°C° 0 mm 3 mps 753 mmHg 82%
    13:00 +17°C° 0 mm 3 mps 753 mmHg 81%
    14:00 +17°C° 0 mm 3 mps 753 mmHg 80%
    15:00 +17°C° 0 mm 3 mps 754 mmHg 79%
    16:00 +16°C° 0 mm 3 mps 754 mmHg 83%
    17:00 +15°C° 0 mm 2 mps 754 mmHg 88%
    18:00 +14°C° 0 mm 2 mps 754 mmHg 92%
    19:00 +14°C° 0 mm 2 mps 755 mmHg 93%
    20:00 +14°C° 0 mm 2 mps 755 mmHg 93%
    21:00 +13°C° 0 mm 2 mps 755 mmHg 94%
    22:00 +13°C° 0 mm 2 mps 755 mmHg 94%
    23:00 +13°C° 0 mm 2 mps 755 mmHg 93%

    22 September, Saturday

    Time Temperature Precipitation Wind Pressure Humidity
    00:00 +13°C° 0 mm 2 mps 756 mmHg 93%
    01:00 +13°C° 0 mm 2 mps 756 mmHg 93%
    02:00 +13°C° 0 mm 2 mps 756 mmHg 94%
    03:00 +13°C° 0 mm 2 mps 756 mmHg 94%
    04:00 +13°C° 0 mm 2 mps 756 mmHg 95%
    05:00 +13°C° 0 mm 2 mps 756 mmHg 95%
    06:00 +13°C° 0 mm 2 mps 757 mmHg 95%
    07:00 +14°C° 0 mm 2 mps 757 mmHg 90%
    08:00 +16°C° 0 mm 2 mps 757 mmHg 85%
    09:00 +18°C° 0 mm 2 mps 757 mmHg 79%
    10:00 +19°C° 0 mm 2 mps 757 mmHg 74%
    11:00 +21°C° 0 mm 3 mps 756 mmHg 69%
    12:00 +22°C° 0 mm 3 mps 756 mmHg 64%
    13:00 +22°C° 0 mm 3 mps 756 mmHg 63%
    14:00 +22°C° 0 mm 3 mps 756 mmHg 62%
    15:00 +24°C° 0 mm 3 mps 755 mmHg 61%
    16:00 +21°C° 0 mm 3 mps 755 mmHg 68%
    17:00 +19°C° 0 mm 3 mps 755 mmHg 74%
    18:00 +18°C° 0 mm 2 mps 755 mmHg 81%
    19:00 +17°C° 0 mm 2 mps 755 mmHg 84%
    20:00 +16°C° 0 mm 2 mps 755 mmHg 86%
    21:00 +16°C° 0 mm 2 mps 755 mmHg 89%
    22:00 +15°C° 0 mm 2 mps 755 mmHg 90%
    23:00 +15°C° 0 mm 2 mps 755 mmHg 91%

    23 September, Sunday

    Time Temperature Precipitation Wind Pressure Humidity
    00:00 +15°C° 0 mm 2 mps 755 mmHg 92%
    01:00 +14°C° 0 mm 2 mps 755 mmHg 93%
    02:00 +14°C° 0 mm 2 mps 755 mmHg 93%
    03:00 +14°C° 0 mm 2 mps 755 mmHg 93%
    04:00 +14°C° 0 mm 2 mps 755 mmHg 93%
    05:00 +13°C° 0 mm 2 mps 754 mmHg 94%
    06:00 +13°C° 0 mm 2 mps 754 mmHg 94%
    07:00 +14°C° 0 mm 3 mps 754 mmHg 87%
    08:00 +17°C° 0 mm 3 mps 754 mmHg 80%
    09:00 +18°C° 0 mm 3 mps 754 mmHg 73%
    10:00 +20°C° 0 mm 3 mps 754 mmHg 67%
    11:00 +21°C° 0 mm 4 mps 754 mmHg 62%
    12:00 +23°C° 0 mm 4 mps 754 mmHg 56%
    13:00 +23°C° 0 mm 4 mps 753 mmHg 56%
    14:00 +23°C° 0 mm 4 mps 753 mmHg 56%
    15:00 +23°C° 0 mm 4 mps 753 mmHg 56%
    16:00 +22°C° 0 mm 3 mps 753 mmHg 63%
    17:00 +20°C° 0 mm 3 mps 753 mmHg 70%
    18:00 +18°C° 0 mm 3 mps 753 mmHg 77%
    19:00 +18°C° 0 mm 3 mps 753 mmHg 79%
    20:00 +17°C° 0 mm 3 mps 753 mmHg 81%
    21:00 +16°C° 0 mm 3 mps 753 mmHg 83%
    22:00 +16°C° 0 mm 3 mps 753 mmHg 84%
    23:00 +16°C° 0 mm 3 mps 752 mmHg 84%

    24 September, Monday

    Time Temperature Precipitation Wind Pressure Humidity
    00:00 +16°C° 0 mm 3 mps 752 mmHg 84%
    01:00 +14°C° 0 mm 3 mps 752 mmHg 85%
    02:00 +14°C° 0 mm 3 mps 752 mmHg 85%
    03:00 +14°C° 0 mm 3 mps 752 mmHg 86%
    04:00 +14°C° 0 mm 3 mps 752 mmHg 85%
    05:00 +13°C° 0 mm 3 mps 752 mmHg 85%
    06:00 +13°C° 0 mm 3 mps 752 mmHg 85%
    07:00 +16°C° 0 mm 3 mps 752 mmHg 78%
    08:00 +18°C° 0 mm 4 mps 752 mmHg 71%
    09:00 +19°C° 0 mm 4 mps 752 mmHg 65%
    10:00 +21°C° 0 mm 4 mps 753 mmHg 60%
    11:00 +22°C° 0 mm 4 mps 753 mmHg 55%
    12:00 +25°C° 0 mm 5 mps 753 mmHg 50%
    13:00 +25°C° 0 mm 4 mps 753 mmHg 49%
    14:00 +25°C° 0 mm 4 mps 753 mmHg 49%
    15:00 +25°C° 0 mm 4 mps 753 mmHg 48%
    16:00 +22°C° 0 mm 3 mps 753 mmHg 54%
    17:00 +20°C° 0 mm 3 mps 753 mmHg 60%
    18:00 +18°C° 0 mm 2 mps 753 mmHg 67%
    19:00 +18°C° 0 mm 2 mps 753 mmHg 70%
    20:00 +17°C° 0 mm 2 mps 754 mmHg 73%
    21:00 +16°C° 0 mm 1 mps 754 mmHg 77%
    22:00 +16°C° 0 mm 1 mps 754 mmHg 78%
    23:00 +15°C° 0 mm 1 mps 754 mmHg 79%
    Show more